Weather History for KLKU - July, 2013

Change the Weather History Date:

Tuesday, July 30, 2013

  Actual Average (KCHO) Record (KCHO)
Temperature  
Mean Temperature 70 °F 75 °F  
Max Temperature 84 °F 86 °F 101 °F (1953)
Min Temperature 57 °F 65 °F 54 °F (2014)
Degree Days  
Heating Degree Days 0 0  
Month to date heating degree days 0  
Since 1 June heating degree days 11  
Since 1 July heating degree days 0  
Cooling Degree Days 6 10  
Month to date cooling degree days 317  
Year to date cooling degree days 622  
Since 1 June cooling degree days 536  
Growing Degree Days 20 (Base 50)    
Moisture  
Dew Point 62 °F    
Average Humidity 77    
Maximum Humidity 100    
Minimum Humidity 45    
Precipitation  
Precipitation 0.00 in 0.13 in 0.43 in (2007)
Month to date precipitation 4.18  
Year to date precipitation 24.38  
Sea Level Pressure  
Sea Level Pressure 30.19 in    
Wind  
Wind Speed 1 mph (WSW)    
Max Wind Speed 6 mph    
Max Gust Speed -    
Visibility 7 miles    
Events Fog    
T = Trace of Precipitation, MM = Missing Value Source: NWS Daily Summary

Daily Weather History Graph

Daily Weather History Graph

Search for Another Location

Airport or City:

Trip Planner

Search our weather history database for the weather conditions in past years. The results will help you decide how hot, cold, wet, or windy it might be!

Date:

Astronomy

Jul. 30, 2013 Rise Set
Actual Time 6:13 AM EDT 8:22 PM EDT
Civil Twilight 5:43 AM EDT 8:52 PM EDT
Nautical Twilight 5:07 AM EDT 9:27 PM EDT
Astronomical Twilight 4:28 AM EDT 10:06 PM EDT
Moon 12:29 AM EDT (7/30) 2:41 PM EDT (7/30)
Length of Visible Light 15h 08m
Length of Day
14h 09m
Last Quarter, 41% of the Moon is Illuminated
Jul 30
Last Quarter
Aug 6
New
Aug 14
First Quarter
Aug 20
Full
Aug 28
Last Quarter

Hourly Weather History & Observations

Time (EDT) Temp. Heat Index Dew Point Humidity Pressure Visibility Wind Dir Wind Speed Gust Speed Precip Events Conditions
12:15 AM 69.8 °F - 64.4 °F 83% 30.17 in 10.0 mi NNW 4.6 mph - N/A   Mostly Cloudy
12:35 AM 66.2 °F - 64.4 °F 94% 30.18 in 10.0 mi Calm Calm - N/A   Scattered Clouds
12:55 AM 64.4 °F - 62.6 °F 94% 30.18 in 7.0 mi Calm Calm - N/A   Clear
1:15 AM 64.4 °F - 62.6 °F 94% 30.18 in 3.0 mi Calm Calm - N/A   Clear
1:35 AM 60.8 °F - 60.8 °F 100% 30.18 in 0.5 mi Calm Calm - N/A Fog Fog
1:55 AM 60.8 °F - 60.8 °F 100% 30.18 in 0.8 mi Calm Calm - N/A   Mist
2:15 AM 60.8 °F - 60.8 °F 100% 30.18 in 1.0 mi Calm Calm - N/A   Mist
2:35 AM 60.8 °F - 60.8 °F 100% 30.19 in 4.0 mi Calm Calm - N/A   Clear
2:55 AM 60.8 °F - 59.0 °F 94% 30.19 in 1.8 mi Calm Calm - N/A   Mist
3:15 AM 60.8 °F - 59.0 °F 94% 30.18 in 1.0 mi Calm Calm - N/A   Mist
3:35 AM 59.0 °F - 57.2 °F 94% 30.18 in 2.5 mi Calm Calm - N/A   Clear
3:55 AM 60.8 °F - 59.0 °F 94% 30.18 in 0.5 mi Calm Calm - N/A Fog Fog
4:15 AM 59.0 °F - 57.2 °F 94% 30.18 in 2.5 mi Calm Calm - N/A   Clear
4:35 AM 57.2 °F - 57.2 °F 100% 30.18 in 0.8 mi Calm Calm - N/A   Mist
4:55 AM 57.2 °F - 57.2 °F 100% 30.19 in 3.0 mi Calm Calm - N/A   Clear
5:15 AM 57.2 °F - 57.2 °F 100% 30.19 in 1.0 mi Calm Calm - N/A   Mist
5:35 AM 57.2 °F - 57.2 °F 100% 30.19 in 0.8 mi Calm Calm - N/A   Overcast
5:55 AM 60.8 °F - 59.0 °F 94% 30.20 in 10.0 mi Calm Calm - N/A   Overcast
6:15 AM 60.8 °F - 60.8 °F 100% 30.20 in 10.0 mi Calm Calm - N/A   Overcast
6:35 AM 60.8 °F - 59.0 °F 94% 30.21 in 10.0 mi Calm Calm - N/A   Overcast
6:55 AM 60.8 °F - 59.0 °F 94% 30.22 in 5.0 mi Calm Calm - N/A   Scattered Clouds
7:15 AM 62.6 °F - 60.8 °F 94% 30.22 in 5.0 mi Calm Calm - N/A   Clear
7:35 AM 64.4 °F - 62.6 °F 94% 30.23 in 10.0 mi Calm Calm - N/A   Scattered Clouds
7:55 AM 66.2 °F - 64.4 °F 94% 30.23 in 10.0 mi Calm Calm - N/A   Scattered Clouds
8:15 AM 66.2 °F - 64.4 °F 94% 30.23 in 10.0 mi Calm Calm - N/A   Mostly Cloudy
8:35 AM 69.8 °F - 64.4 °F 83% 30.24 in 10.0 mi Calm Calm - N/A   Mostly Cloudy
8:55 AM 71.6 °F - 64.4 °F 78% 30.24 in 10.0 mi North 3.5 mph - N/A   Scattered Clouds
9:15 AM 73.4 °F - 64.4 °F 73% 30.24 in 10.0 mi Calm Calm - N/A   Clear
9:35 AM 75.2 °F - 62.6 °F 65% 30.24 in 10.0 mi Calm Calm - N/A   Clear
9:55 AM 75.2 °F - 60.8 °F 61% 30.24 in 10.0 mi Calm Calm - N/A   Clear
10:15 AM 77.0 °F - 60.8 °F 57% 30.24 in 10.0 mi Calm Calm - N/A   Clear
10:35 AM 78.8 °F - 60.8 °F 54% 30.24 in 10.0 mi Calm Calm - N/A   Clear
10:55 AM 78.8 °F - 62.6 °F 57% 30.24 in 10.0 mi Calm Calm - N/A   Clear
11:15 AM 78.8 °F - 60.8 °F 54% 30.23 in 10.0 mi Calm Calm - N/A   Clear
11:35 AM 80.6 °F 81.5 °F 60.8 °F 51% 30.22 in 10.0 mi NE 3.5 mph - N/A   Scattered Clouds
11:55 AM 80.6 °F 81.8 °F 62.6 °F 54% 30.22 in 10.0 mi North 4.6 mph - N/A   Scattered Clouds
12:15 PM 78.8 °F - 60.8 °F 54% 30.22 in 10.0 mi Calm Calm - N/A   Mostly Cloudy
12:55 PM 80.6 °F 81.1 °F 59.0 °F 48% 30.22 in 10.0 mi Calm Calm - N/A   Mostly Cloudy
1:15 PM 82.4 °F 83.4 °F 62.6 °F 51% 30.21 in 10.0 mi WSW 3.5 mph - N/A   Scattered Clouds
1:35 PM 80.6 °F 81.5 °F 60.8 °F 51% 30.21 in 10.0 mi Calm Calm - N/A   Mostly Cloudy
2:15 PM 80.6 °F 81.5 °F 60.8 °F 51% 30.20 in 10.0 mi SSE 3.5 mph - N/A   Mostly Cloudy
2:35 PM 80.6 °F 81.8 °F 62.6 °F 54% 30.20 in 10.0 mi SE 5.8 mph - N/A   Overcast
2:55 PM 82.4 °F 82.9 °F 60.8 °F 48% 30.19 in 10.0 mi SSW 5.8 mph - N/A   Mostly Cloudy
3:15 PM 82.4 °F 83.4 °F 62.6 °F 51% 30.18 in 10.0 mi SSE 3.5 mph - N/A   Mostly Cloudy
3:35 PM 82.4 °F 82.9 °F 60.8 °F 48% 30.18 in 10.0 mi Calm Calm - N/A   Mostly Cloudy
3:55 PM 84.2 °F 84.4 °F 60.8 °F 45% 30.18 in 10.0 mi West 4.6 mph - N/A   Mostly Cloudy
4:15 PM 82.4 °F 82.9 °F 60.8 °F 48% 30.18 in 10.0 mi WNW 5.8 mph - N/A   Scattered Clouds
4:35 PM 84.2 °F 85.0 °F 62.6 °F 48% 30.17 in 10.0 mi WSW 5.8 mph - N/A   Scattered Clouds
4:55 PM 84.2 °F 85.0 °F 62.6 °F 48% 30.17 in 10.0 mi Calm Calm - N/A   Scattered Clouds
5:15 PM 82.4 °F 82.9 °F 60.8 °F 48% 30.16 in 10.0 mi Calm Calm - N/A   Scattered Clouds
5:35 PM 82.4 °F 82.9 °F 60.8 °F 48% 30.16 in 10.0 mi Calm Calm - N/A   Scattered Clouds
5:55 PM 82.4 °F 82.9 °F 60.8 °F 48% 30.16 in 10.0 mi Calm Calm - N/A   Clear
6:15 PM 82.4 °F 83.4 °F 62.6 °F 51% 30.16 in 10.0 mi Calm Calm - N/A   Clear
6:35 PM 80.6 °F 82.3 °F 64.4 °F 58% 30.16 in 10.0 mi Calm Calm - N/A   Clear
6:55 PM 80.6 °F 82.3 °F 64.4 °F 58% 30.16 in 10.0 mi Calm Calm - N/A   Clear
7:15 PM 77.0 °F - 68.0 °F 74% 30.16 in 10.0 mi Calm Calm - N/A   Clear
7:35 PM 75.2 °F - 66.2 °F 73% 30.16 in 10.0 mi Calm Calm - N/A   Clear
7:55 PM 73.4 °F - 69.8 °F 88% 30.16 in 10.0 mi Calm Calm - N/A   Clear
8:15 PM 71.6 °F - 68.0 °F 88% 30.16 in 7.0 mi Calm Calm - N/A   Clear
8:35 PM 69.8 °F - 66.2 °F 88% 30.16 in 7.0 mi Calm Calm - N/A   Clear
8:55 PM 68.0 °F - 66.2 °F 94% 30.16 in 7.0 mi Calm Calm - N/A   Clear
9:15 PM 66.2 °F - 64.4 °F 94% 30.16 in 7.0 mi Calm Calm - N/A   Clear
9:35 PM 64.4 °F - 62.6 °F 94% 30.16 in 4.0 mi Calm Calm - N/A   Clear
9:55 PM 66.2 °F - 64.4 °F 94% 30.16 in 4.0 mi Calm Calm - N/A   Clear
10:15 PM 64.4 °F - 62.6 °F 94% 30.16 in 2.0 mi SE 3.5 mph - N/A   Clear
10:35 PM 64.4 °F - 64.4 °F 100% 30.16 in 3.0 mi Calm Calm - N/A   Clear
10:55 PM 66.2 °F - 64.4 °F 94% 30.17 in 4.0 mi Calm Calm - N/A   Clear
11:15 PM 66.2 °F - 64.4 °F 94% 30.16 in 5.0 mi Calm Calm - N/A   Clear
11:35 PM 64.4 °F - 64.4 °F 100% 30.16 in 5.0 mi Calm Calm - N/A   Clear
11:55 PM 64.4 °F - 64.4 °F 100% 30.16 in 5.0 mi Calm Calm - N/A   Clear